User: anonymous   Login
Location: Fort Wayne
(41.1310°N, 85.1290°W)
Time: 06:30:07
(UTC-05:00)
Language:

Helios 1B - Orbit

View from above orbital plane
View from above orbital plane
View from above satellite
View from above satellite

Ground track
Ground track

The orbit data is extracted from the following two-line orbital elements,

1 25977U 99064A   14353.94067625  .00002733  00000-0  36065-3 0  4491
2 25977 098.1532 074.4902 0001395 046.4398 012.4303 14.80900861809218
Epoch (UTC): 19 December 2014 22:34:34
Eccentricity: 0.0001395
inclination: 98.1532°
perigee height: 625 km
apogee height: 627 km
right ascension of ascending node: 74.4902°
argument of perigee: 46.4398°
revolutions per day: 14.80900861
mean anomaly at epoch: 12.4303°
orbit number at epoch: 80921

The dashed part of the orbit path shows where the satellite is in the earth's shadow,  

DLR